#timestamp,LO_Frequency,Hit,StdDev 
1701507615.3,286047001.1,N
1701507635.2,286047000.4,N
1701507655.0,286047000.0,N
1701507655.9,286047000.0,N
1701507675.7,286047000.5,N
1701507695.6,286047000.7,N
1701507715.4,286047001.1,N
1701507735.3,286046999.4,N
1701507755.1,286046996.6,N
1701507756.0,286046996.6,N
1701507775.8,286046997.7,N
1701507795.7,286046995.8,N
1701507815.5,286046996.4,N
1701507835.4,286046995.1,Y
1701507855.2,286046998.0,P
1701507875.0,286046995.3,P
1701507875.9,286046995.3,N
1701507895.8,286046997.7,N
1701507915.6,286046996.6,N
1701507935.4,286046999.6,N
1701507955.3,286046999.1,N
1701507975.1,286046996.8,N
1701507995.9,286046997.5,N
1701508015.7,286046995.7,N
1701508035.5,286046995.8,N
1701508055.4,286046996.0,N
1701508075.2,286046997.9,N
1701508095.0,286046995.1,Y
1701508096.0,286046995.1,P
1701508115.8,286046998.9,N
1701508135.6,286046997.4,N
1701508155.5,286046997.1,N
1701508175.3,286046994.9,Y
1701508195.2,286046998.1,P
1701508215.9,286046999.4,N
1701508235.7,286046999.4,N
1701508255.6,286046998.7,N
1701508275.4,286046998.5,N
1701508295.2,286047001.1,N
1701508315.1,286046998.2,N
1701508316.0,286046998.2,N
1701508335.8,286046999.4,N
1701508355.7,286046999.2,N
1701508375.5,286046998.9,N
1701508395.4,286046996.6,Y
1701508415.2,286046998.1,P
1701508435.0,286046996.9,P
1701508435.9,286046996.9,P
1701508455.8,286046999.5,N
1701508475.6,286046999.3,N
1701508495.5,286046999.1,N
1701508515.3,286046997.1,N
1701508535.1,286046997.4,N
1701508555.9,286046995.8,Y
1701508575.7,286046996.5,P
1701508595.5,286046997.1,P
1701508615.4,286046997.1,P
1701508635.2,286046996.9,Y
1701508655.1,286047002.2,P
1701508656.0,286047002.2,N
1701508675.8,286047000.2,N
1701508695.6,286046999.9,N
1701508715.5,286047000.4,N
1701508735.3,286047000.5,N
1701508755.2,286047000.9,N
1701508775.9,286046998.8,N
1701508795.7,286046998.5,N
1701508815.6,286046998.2,N
1701508835.4,286046998.2,N
1701508855.2,286046999.4,N
1701508875.1,286046998.7,N
1701508876.0,286046998.7,N
1701508895.8,286046999.3,N
1701508915.7,286046997.0,N
1701508935.5,286046999.5,N
1701508955.3,286046998.8,N
1701508975.2,286046998.1,N
1701508995.0,286046998.4,N
1701508995.9,286046998.4,N
1701509015.8,286046996.6,N
1701509035.6,286046996.8,N
1701509055.4,286046997.0,N
1701509075.3,286046996.8,N
1701509095.1,286046997.7,N
1701509115.8,286046996.8,N
1701509135.7,286046996.8,N
1701509155.5,286046994.9,Y
1701509175.4,286046999.2,P
1701509195.2,286046996.5,P
1701509215.0,286046999.6,N
1701509215.9,286046999.6,N
1701509235.8,286046997.3,N
1701509255.6,286046997.8,N
1701509275.5,286046998.0,N
1701509295.3,286046997.4,N
1701509315.1,286047011.9,Y
1701509335.9,286046998.5,P
1701509355.7,286046998.2,P
1701509375.5,286046998.4,P
1701509395.4,286046998.6,Y
1701509415.2,286047000.0,P
1701509435.1,286047000.5,N
1701509436.0,286047000.5,N
1701509455.8,286047002.5,N
1701509475.6,286047002.3,N
1701509495.5,286047002.2,N
1701509515.3,286047002.3,N
1701509535.2,286047002.6,N
1701509555.9,286047002.5,N
1701509575.7,286047002.5,N
1701509595.6,286047002.4,N
1701509615.4,286047002.5,N
1701509635.2,286047001.6,N
1701509655.1,286047002.7,N
1701509656.0,286047002.7,N
1701509675.8,286047001.1,N
1701509695.7,286047002.7,N
1701509715.5,286047000.9,N
1701509735.4,286047000.7,N
1701509755.2,286047000.7,N
1701509775.0,286047002.3,N
1701509775.9,286047002.3,N
1701509795.8,286047001.6,N
1701509815.6,286047001.9,N
1701509835.4,286047000.0,N
1701509855.3,286046999.9,N
1701509875.1,286047004.3,Y
1701509895.9,286046999.7,P
1701509915.7,286047002.6,N
1701509935.5,286047001.3,N
1701509955.4,286047002.5,N
1701509975.2,286047000.3,N
1701509995.1,286047002.2,N
1701509996.0,286047002.2,N
1701510015.8,286047002.7,N
1701510035.6,286047002.5,N
1701510055.5,286047000.0,N
1701510075.3,286047000.0,N
1701510095.1,286047000.9,N
1701510115.9,286046998.2,N
1701510135.7,286046998.2,N
1701510155.6,286046999.3,N
1701510175.4,286046999.1,N
1701510195.2,286046999.1,N
1701510215.1,286046998.9,N
1701510216.0,286046998.9,N
1701510235.8,286046997.4,N
1701510255.7,286046997.0,N
1701510275.5,286046999.4,N
1701510295.3,286046999.6,N
1701510315.9,286046996.7,N
1701510335.7,286046996.6,N
1701510355.6,286046998.7,N
1701510375.4,286046998.6,N
1701510395.2,286047001.0,N
1701510415.1,286047000.8,N
1701510416.0,286047000.8,N
1701510435.8,286046998.8,N
1701510455.7,286046998.7,N
1701510475.5,286046998.2,N
1701510495.4,286046998.1,N
1701510515.2,286046999.9,N
1701510535.0,286047002.7,N
1701510536.0,286047002.7,N
1701510555.8,286047000.2,N
1701510575.6,286047001.4,N
1701510595.5,286047003.9,N
1701510615.3,286047003.6,N
1701510635.1,286047003.2,N
1701510655.9,286047005.4,N
1701510675.7,286047005.7,N
1701510695.6,286047005.5,N
1701510715.4,286047003.1,N
1701510735.2,286047003.2,N
1701510755.1,286047004.0,N
1701510756.0,286047004.0,N
1701510775.8,286047003.2,N
1701510795.7,286047005.2,N
1701510815.5,286047005.4,N
1701510835.3,286047005.0,N
1701510855.2,286047004.8,N
1701510875.0,286047007.0,N
1701510875.9,286047007.0,N
1701510895.7,286047006.2,N
1701510915.6,286047008.1,Y
1701510935.4,286047004.8,P
1701510955.3,286047005.3,P
1701510975.1,286047005.2,P
1701510976.0,286047005.2,Y
1701510995.8,286046999.7,P
1701511015.7,286047000.9,N
1701511035.5,286047001.2,N
1701511055.4,286047001.0,N
1701511075.2,286046999.7,N
1701511095.0,286047000.1,N
1701511095.9,286047000.1,N
1701511115.8,286047000.2,N
1701511135.6,286047000.4,N
1701511155.4,286046999.7,N
1701511175.3,286047002.2,N
1701511195.1,286047001.9,N
